Regional Weather Roundup
Issued by NWS New Orleans/Baton Rouge, LA

Home | Current Version | Previous Version | Text Only | Print | Product List | Glossary Off
Versions: 1 2 3 4 5 6 7 8 9 10 11 12 13 14 15 16 17 18 19 20 21 22 23 24 25 26 27 28 29 30 31 32 33 34 35 36 37 38 39 40 41 42 43 44 45 46 47 48 49 50

398
ASUS44 KLIX 260001
RWRLIX
NEW ORLEANS REGIONAL WEATHER ROUNDUP
NATIONAL WEATHER SERVICE NEW ORLEANS LA
700 PM CDT FRI JUL 25 2014

NOTE: "FAIR" INDICATES FEW OR NO CLOUDS BELOW 12,000 FEET WITH NO
      SIGNIFICANT WEATHER AND/OR OBSTRUCTIONS TO VISIBILITY.
      SKY/WX - SKY CONDITION AND SIGNIFICANT WEATHER.
      TMP - AIR TEMPERATURE.     DP    - DEWPOINT TEMPERATURE.
      RH  - RELATIVE HUMIDITY.   PRES  - PRESSURE.
      HI  - HEAT INDEX.          WCI   - WIND CHILL INDEX.

*  THESE STATIONS ARE NOT NWS OR FAA STATIONS AND ARE NOT UNDER
   NWS QUALITY CONTROL.

LAZ038-040-048-061>063-065>067-069-260100-
SOUTHEAST LOUISIANA

CITY           SKY/WX    TMP DP  RH WIND       PRES   REMARKS
N.O. AUDUBON   NOT AVBL
N.O. INTL ARPT CLOUDY    83  75  77 S9        29.98S
6HR MIN TEMP:  82; 6HR MAX TEMP:  94;

N.O. LAKEFRONT CLOUDY    85  72  65 SW12      29.98S
6HR MIN TEMP:  85; 6HR MAX TEMP:  90;

N.O. DOWNTOWN*   N/A     84  70  61 SW7       29.99S
6HR MIN TEMP:  81; 6HR MAX TEMP:  91; 6HR PCP:  0.10;

SLIDELL        CLOUDY    86  75  69 CALM      29.97S HX  95
6HR MIN TEMP:  81; 6HR MAX TEMP:  92;

BATON ROUGE    MOSUNNY   90  73  57 W6        29.97S HX  98
6HR MIN TEMP:  90; 6HR MAX TEMP:  94;

BOOTHVILLE     MOSUNNY   85  76  74 SW12      30.00F
6HR MIN TEMP:  84; 6HR MAX TEMP:  87;

BELLE CHASSE   CLOUDY    82  72  71 CALM      29.98R
6HR MIN TEMP:  80; 6HR MAX TEMP:  93; 6HR PCP: TRACE;

BOGALUSA*      MOCLDY    84  74  70 SW3       29.98S
6HR MIN TEMP:  79; 6HR MAX TEMP:  92; 6HR PCP:  1.72;

GALLIANO*      NOT AVBL
NEW ROADS*       N/A     90  74  59 MISG      29.97S HX  99
6HR MIN TEMP:  89; 6HR MAX TEMP:  92;

GONZALES*      RAIN      82  77  86 CALM      29.97S
6HR MIN TEMP:  80; 6HR MAX TEMP:  91; 6HR PCP:  0.66;

HAMMOND*       PTSUNNY   86  73  66 SE9       29.99R
HOUMA*         MOSUNNY   86  72  62 CALM      29.99S
PORT FOURCHON* PTCLDY    86  75  70 SW10      30.02S HX  95

$$

MSZ070-080>082-260100-
SOUTHERN MISSISSIPPI

CITY           SKY/WX    TMP DP  RH WIND       PRES   REMARKS
MCCOMB         MOSUNNY   88  73  61 N3        29.99R HX  95
6HR MIN TEMP:  88; 6HR MAX TEMP:  93;

GULFPORT       CLOUDY    85  75  72 SE5       29.97S
6HR MIN TEMP:  82; 6HR MAX TEMP:  94; 6HR PCP:  0.05;

BILOXI         PTSUNNY   81  76  84 SW8       29.98S
6HR MIN TEMP:  78; 6HR MAX TEMP:  91; 6HR PCP: TRACE;

PASCAGOULA     MOCLDY    83  77  82 SW5       29.97F
6HR MIN TEMP:  74; 6HR MAX TEMP:  92; 6HR PCP:  0.65;

STENNIS ARPT*  SUNNY    N/A N/A N/A CALM      29.97S

$$

COASTAL OBSERVATIONS
LAKE AND NEARSHORE STATIONS

STATION/POSITION TIME  TEMP    WIND        PRES    WAVE
                       AIR SEA DIR/SP/G            HT/PER
                 (UTC) (F)     (DEG/KT/KT) (MB)    (FT/S)
PASCAGOULA       2318   84     260/  5/  7 1014.9
WAVELAND YACHT   2318   84     170/  3/  4 1014.4
GRAND ISLE       2318   86 87  260/ 13/ 14 1016.4
SOUTHWEST PASS   2318   86 85  240/ 13/ 15 1016.5
NEW CANAL        2318   85 85  200/  7/ 10 1015.7
SHELL BEACH      2318   82 82  260/ 10/ 17 1015.2

OFFSHORE STATIONS

STATION/POSITION TIME  TEMP    WIND        PRES    WAVE
                       AIR SEA DIR/SP/G            HT/PER
                 (UTC) (F)     (DEG/KT/KT) (MB)    (FT/S)

$$




USA.gov is the U.S. government's official web portal to all federal, state and local government web resources and services.